Fort Wainwright, AK

5:11 AM AKDT on August 26, 2016 (GMT -0800)
Ladd Army Air Field

Weather History for PAFB - March, 2013

Change the Weather History Date:

Friday, March 22, 2013

  Actual Average Record
Temperature  
Mean Temperature 20 °F -  
Max Temperature 30 °F 22 °F 43 °F (2016)
Min Temperature 10 °F 0 °F -25 °F (2012)
Degree Days  
Heating Degree Days 45    
Moisture  
Dew Point 4 °F    
Average Humidity 50    
Maximum Humidity 62    
Minimum Humidity 40    
Precipitation  
Precipitation 0.00 in - - ()
Snow  
Snow 0.00 in - - ()
Snow Depth 18.00 in    
Sea Level Pressure  
Sea Level Pressure 29.85 in    
Wind  
Wind Speed 7 mph (East)    
Max Wind Speed 13 mph    
Max Gust Speed -    
Visibility 10 miles    
Events      
Averages and records for this station are not official NWS values.
T = Trace of Precipitation, MM = Missing Value Source: NWS Daily Summary

Daily Weather History Graph

Daily Weather History Graph

Search for Another Location

Airport or City:

Trip Planner

Search our weather history database for the weather conditions in past years. The results will help you decide how hot, cold, wet, or windy it might be!

Date:

Astronomy

Mar. 22, 2013 Rise Set
Actual Time 7:41 AM AKDT 8:14 PM AKDT
Civil Twilight 6:52 AM AKDT 9:03 PM AKDT
Nautical Twilight 5:51 AM AKDT 10:05 PM AKDT
Astronomical Twilight 4:40 AM AKDT 11:17 PM AKDT
Moon 2:23 PM AKDT (3/22) 6:20 AM AKDT (3/22)
Length of Visible Light 14h 10m
Length of Day
12h 32m
Waxing Gibbous, 78% of the Moon is Illuminated
Mar 22
Waxing Gibbous
Mar 27
Full
Apr 2
Last Quarter
Apr 10
New
Apr 18
First Quarter

Hourly Weather History & Observations

Time (AKDT) Temp. Windchill Dew Point Humidity Pressure Visibility Wind Dir Wind Speed Gust Speed Precip Events Conditions
12:56 AM 12.0 °F 5.9 °F -0.9 °F 56% 30.04 in 10.0 mi East 3.5 mph - N/A   Overcast
1:56 AM 12.9 °F 6.9 °F -0.0 °F 56% 30.04 in 10.0 mi ENE 3.5 mph - N/A   Overcast
2:56 AM 12.9 °F 2.6 °F -0.0 °F 56% 30.01 in 10.0 mi ENE 6.9 mph - N/A   Overcast
3:56 AM 12.9 °F 2.6 °F -0.0 °F 56% 29.99 in 10.0 mi ENE 6.9 mph - N/A   Overcast
4:56 AM 10.9 °F -0.8 °F -0.0 °F 61% 29.98 in 10.0 mi ENE 8.1 mph - N/A   Overcast
5:56 AM 12.9 °F 2.6 °F -0.0 °F 56% 29.96 in 10.0 mi ENE 6.9 mph - N/A   Overcast
6:30 AM 12.2 °F -0.2 °F -0.4 °F 57% 29.93 in 10.0 mi East 9.2 mph - N/A   Overcast
6:55 AM 14.0 °F 1.2 °F -0.4 °F 53% 29.95 in 10.0 mi East 10.4 mph - N/A   Overcast
7:55 AM 12.2 °F 1.7 °F -0.4 °F 57% 29.93 in 10.0 mi ENE 6.9 mph - N/A   Overcast
8:55 AM 12.2 °F 4.3 °F -0.4 °F 57% 29.91 in 10.0 mi ENE 4.6 mph - N/A   Overcast
9:55 AM 17.6 °F 8.2 °F -0.4 °F 45% 29.89 in 10.0 mi East 6.9 mph - N/A   Overcast
10:55 AM 19.4 °F 9.5 °F 1.4 °F 46% 29.87 in 10.0 mi ENE 8.1 mph - N/A   Overcast
11:55 AM 21.2 °F 11.7 °F 1.4 °F 42% 29.85 in 10.0 mi East 8.1 mph - N/A   Overcast
12:55 PM 24.8 °F 14.0 °F 3.2 °F 40% 29.83 in 10.0 mi SE 11.5 mph - N/A   Overcast
1:55 PM 26.6 °F 16.8 °F 5.0 °F 40% 29.80 in 10.0 mi ESE 10.4 mph - N/A   Overcast
2:55 PM 28.4 °F 18.5 °F 6.8 °F 40% 29.78 in 10.0 mi ESE 11.5 mph - N/A   Overcast
3:55 PM 30.2 °F 20.2 °F 8.6 °F 40% 29.76 in 10.0 mi SE 12.7 mph - N/A   Overcast
4:55 PM 30.2 °F 20.8 °F 8.6 °F 40% 29.74 in 10.0 mi ESE 11.5 mph - N/A   Overcast
5:55 PM 30.2 °F 20.8 °F 8.6 °F 40% 29.72 in 10.0 mi SE 11.5 mph - N/A   Mostly Cloudy
6:55 PM 30.2 °F 23.4 °F 10.4 °F 44% 29.70 in 10.0 mi ESE 6.9 mph - N/A   Mostly Cloudy
7:55 PM 28.4 °F 20.4 °F 10.4 °F 47% 29.69 in 10.0 mi ESE 8.1 mph - N/A   Mostly Cloudy
8:55 PM 26.6 °F 20.0 °F 10.4 °F 51% 29.70 in 10.0 mi SE 5.8 mph - N/A   Mostly Cloudy
9:55 PM 26.6 °F 22.6 °F 10.4 °F 51% 29.70 in 10.0 mi Variable 3.5 mph - N/A   Mostly Cloudy
10:56 PM 25.0 °F 20.7 °F 12.0 °F 58% 29.70 in 10.0 mi SSE 3.5 mph - N/A   Overcast
11:56 PM 24.1 °F 14.4 °F 12.9 °F 62% 29.72 in 10.0 mi WSW 9.2 mph - N/A   Overcast